Satellite: HUBBLE
Catalog number: 20580
Epoch time:      10343.84618904
Element set:     685
Inclination:      028.4677 deg
RA of node:       172.9995 deg
Eccentricity:    0.0003542
Arg of perigee:   258.4127 deg
Mean anomaly:     101.6171 deg
Mean motion:   15.01112968 rev/day
Decay rate:       6.24e-06 rev/day^2
Epoch rev:           93117
Checksum:              297

Satellite: ISS
Catalog number: 25544
Epoch time:      10344.03577257
Element set:     425
Inclination:      051.6479 deg
RA of node:       050.5362 deg
Eccentricity:    0.0007816
Arg of perigee:   329.1455 deg
Mean anomaly:     094.4888 deg
Mean motion:   15.73097633 rev/day
Decay rate:     2.3227e-04 rev/day^2
Epoch rev:           69113
Checksum:              311

Satellite: CO-58
Catalog number: 28895
Epoch time:      10342.68262821
Element set:    0747
Inclination:      097.9905 deg
RA of node:       221.1316 deg
Eccentricity:    0.0018900
Arg of perigee:   098.0753 deg
Mean anomaly:     262.2617 deg
Mean motion:   14.59976262 rev/day
Decay rate:       2.27e-06 rev/day^2
Epoch rev:           27244
Checksum:              330

Satellite: FALCON
Catalog number: 30776
Epoch time:      10342.62472322
Element set:     974
Inclination:      035.4327 deg
RA of node:       065.0055 deg
Eccentricity:    0.0001381
Arg of perigee:   292.6259 deg
Mean anomaly:     067.4311 deg
Mean motion:   15.03995598 rev/day
Decay rate:       9.36e-06 rev/day^2
Epoch rev:           20633
Checksum:              291

Satellite: MAST
Catalog number: 31126
Epoch time:      10343.61280000
Element set:      31
Inclination:      097.9181 deg
RA of node:       016.3581 deg
Eccentricity:    0.0095504
Arg of perigee:   041.0587 deg
Mean anomaly:     319.7737 deg
Mean motion:   14.53652229 rev/day
Decay rate:       2.40e-06 rev/day^2
Epoch rev:           19354
Checksum:              265

Satellite: CAPE1
Catalog number: 31130
Epoch time:      10343.55762925
Element set:      50
Inclination:      097.9201 deg
RA of node:       013.3810 deg
Eccentricity:    0.0103483
Arg of perigee:   050.4447 deg
Mean anomaly:     310.5816 deg
Mean motion:   14.52262421 rev/day
Decay rate:       -2.0e-07 rev/day^2
Epoch rev:           19311
Checksum:              234

Satellite: COMPASS
Catalog number: 32787
Epoch time:      10343.71807186
Element set:     850
Inclination:      097.8741 deg
RA of node:       045.8728 deg
Eccentricity:    0.0016826
Arg of perigee:   074.2157 deg
Mean anomaly:     286.0903 deg
Mean motion:   14.82070736 rev/day
Decay rate:       2.59e-06 rev/day^2
Epoch rev:           14149
Checksum:              318

Satellite: AAUSAT2
Catalog number: 32788
Epoch time:      10342.62340560
Element set:    0841
Inclination:      097.8756 deg
RA of node:       044.9666 deg
Eccentricity:    0.0016677
Arg of perigee:   078.8780 deg
Mean anomaly:     281.4318 deg
Mean motion:   14.82227999 rev/day
Decay rate:       6.52e-06 rev/day^2
Epoch rev:           14134
Checksum:              336

Satellite: DO-64
Catalog number: 32789
Epoch time:      10342.74470955
Element set:    0858
Inclination:      097.8833 deg
RA of node:       045.7772 deg
Eccentricity:    0.0016568
Arg of perigee:   078.0890 deg
Mean anomaly:     282.2208 deg
Mean motion:   14.82478988 rev/day
Decay rate:      1.015e-05 rev/day^2
Epoch rev:           14136
Checksum:              353

Satellite: CO-66
Catalog number: 32791
Epoch time:      10343.15951098
Element set:     842
Inclination:      097.8756 deg
RA of node:       045.3124 deg
Eccentricity:    0.0017199
Arg of perigee:   075.4376 deg
Mean anomaly:     284.8729 deg
Mean motion:   14.81825282 rev/day
Decay rate:       7.16e-06 rev/day^2
Epoch rev:           14136
Checksum:              337

Satellite: RS-30
Catalog number: 32953
Epoch time:      10343.75688228
Element set:     283
Inclination:      082.5011 deg
RA of node:       280.4982 deg
Eccentricity:    0.0020178
Arg of perigee:   078.7472 deg
Mean anomaly:     281.5874 deg
Mean motion:   12.43009728 rev/day
Decay rate:        1.0e-07 rev/day^2
Epoch rev:           11555
Checksum:              298

Satellite: TACSAT-3
Catalog number: 35001
Epoch time:      10343.86019615
Element set:     451
Inclination:      040.4554 deg
RA of node:       237.3506 deg
Eccentricity:    0.0023279
Arg of perigee:   243.9376 deg
Mean anomaly:     115.9049 deg
Mean motion:   15.43959127 rev/day
Decay rate:      6.698e-05 rev/day^2
Epoch rev:            8777
Checksum:              316

Satellite: PHARMSAT
Catalog number: 35002
Epoch time:      10343.83057480
Element set:     421
Inclination:      040.4700 deg
RA of node:       235.0732 deg
Eccentricity:    0.0025549
Arg of perigee:   245.8849 deg
Mean anomaly:     113.9347 deg
Mean motion:   15.44247211 rev/day
Decay rate:      5.960e-05 rev/day^2
Epoch rev:            8779
Checksum:              283

Satellite: HAWKSAT1
Catalog number: 35003
Epoch time:      10343.85170535
Element set:     457
Inclination:      040.4595 deg
RA of node:       222.9864 deg
Eccentricity:    0.0025188
Arg of perigee:   269.1669 deg
Mean anomaly:     090.6294 deg
Mean motion:   15.49852669 rev/day
Decay rate:     1.5183e-04 rev/day^2
Epoch rev:            8793
Checksum:              333

